Flag for Germany Weather past 2 weeks in Witzenhausen, Hesse, Germany

Now
49 °F

Passing clouds.


Feels Like: 49 °F
Forecast: 43 / 60 °F
Wind: 1 mph from East

Location: Fritzlar

Current Time: May 6, 2015 at 5:23:46 AM

Latest Report: May 6, 2015 at 5:00 AM


Visibility: 22 mi

Pressure: 29.89 "Hg

Humidity: 93%

Dew point: 47 °F

Location of WitzenhausenLocation

Historic Weather in Witzenhausen — Graph

°F

Witzenhausen temperature yesterday

Maximum temperature yesterday: 74 °F (at 4:00 PM)
Minimum temperature yesterday: 54 °F (at 5:00 AM)
Average temperature yesterday: 62 °F

Past Weeks' High & Low Weather Summary

 TemperatureHumidityPressure
High74 °F (May 5, 4:00 PM)99% (May 1, 8:00 AM)30.44 "Hg (May 1, 8:00 AM)
Low30 °F (Apr 29, 6:00 AM)23% (Apr 21, 7:00 PM)29.56 "Hg (May 5, 6:00 AM)
Average51 °F74%29.92 "Hg
* Reported Apr 21 4:00 AM — May 6 4:00 AM, Witzenhausen, Weather by CustomWeather, © 2015

Note: Actual official high and low records may vary slightly from our data, if they occured in-between our weather recording intervals... More about our weather records

Advertising

Witzenhausen weather history for previous 24 hours

 ConditionsComfort  
Time TempWeatherWind HumidityBarometerVisibility
4:00 AM
Wed, May 6
50 °FOvercast.1 mph91%29.89 "Hg22 mi
3:00 AM50 °FPassing clouds.N/A90%29.89 "Hg22 mi
2:00 AM51 °FPassing clouds.N/A87%29.89 "Hg25 mi
1:00 AM51 °FPassing clouds.1 mph88%29.88 "Hg25 mi
12:00 AM55 °FPassing clouds.N/A77%29.86 "Hg25 mi
11:00 PM
Tue, May 5
57 °FPassing clouds.N/A72%29.85 "Hg25 mi
10:00 PM58 °FPassing clouds.2 mph67%29.83 "Hg25 mi
9:00 PM58 °FPassing clouds.6 mph68%29.79 "Hg25 mi
8:00 PM61 °FScattered clouds.10 mph65%29.75 "Hg25 mi
7:00 PM62 °FPartly sunny.10 mph68%29.72 "Hg25 mi
6:00 PM72 °FPartly sunny.10 mph45%29.65 "Hg25 mi
5:00 PM73 °FPartly sunny.10 mph46%29.61 "Hg22 mi
4:00 PM74 °FPartly sunny.10 mph46%29.58 "Hg22 mi
3:00 PM74 °FOvercast.10 mph54%29.56 "Hg22 mi
2:00 PM72 °FPartly sunny.10 mph60%29.56 "Hg22 mi
1:00 PM70 °FPartly sunny.8 mph69%29.58 "Hg22 mi
12:00 PM66 °FOvercast.2 mph81%29.59 "Hg25 mi
11:00 AM64 °FLight rain. Overcast.3 mph84%29.59 "Hg25 mi
10:00 AM64 °FLight rain. Overcast.5 mph83%29.58 "Hg22 mi
9:00 AM63 °FLight rain. Overcast.3 mph83%29.57 "Hg22 mi
8:00 AM62 °FLight rain. Overcast.5 mph86%29.56 "Hg25 mi
7:00 AM55 °FOvercast.N/A95%29.57 "Hg25 mi
6:00 AM56 °FPartly sunny.2 mph93%29.56 "Hg25 mi
5:00 AM54 °FOvercast.1 mph97%29.59 "Hg19 mi
Weather by CustomWeather, © 2015

See weather overviewHow to use our weather pages